Weather History for Lakeland Region, FL

Change the Weather History Date:

Friday, February 28, 2014

  Actual Average Record
Temperature  
Mean Temperature 56 °F -  
Max Temperature 69 °F 74 °F 84 °F (1997)
Min Temperature 44 °F 54 °F 33 °F (2002)
Degree Days  
Heating Degree Days 8    
Growing Degree Days 6 (Base 50)    
Moisture  
Dew Point 40 °F    
Average Humidity 64    
Maximum Humidity 87    
Minimum Humidity 23    
Precipitation  
Precipitation 0.00 in - - ()
Sea Level Pressure  
Sea Level Pressure 30.04 in    
Wind  
Wind Speed 3 mph (North)    
Max Wind Speed 7 mph    
Max Gust Speed -    
Visibility 12 miles    
Events      
Averages and records for this station are not official NWS values.
T = Trace of Precipitation, MM = Missing Value Source: NWS Daily Summary

Daily Weather History Graph

Daily Weather History Graph

Search for Another Location

Airport:

Trip Planner

Search our weather history database for the weather conditions in past years. The results will help you decide how hot, cold, wet, or windy it might be!

Date:

Astronomy

Feb. 28, 2014 Rise Set
Actual Time 6:53 AM EST 6:27 PM EST
Civil Twilight 6:30 AM EST 6:51 PM EST
Nautical Twilight 6:02 AM EST 7:18 PM EST
Astronomical Twilight 5:35 AM EST 7:45 PM EST
Moon 6:06 AM EST 6:01 PM EST
Length of Visible Light 12h 21m
Length of Day
11h 34m
Waning Crescent, 1% of the Moon is Illuminated
Feb 28
Waning Crescent
Mar 1
New
Mar 8
First Quarter
Mar 16
Full
Mar 23
Last Quarter

Hourly Weather History & Observations

Time (EST) Temp. Windchill Dew Point Humidity Pressure Visibility Wind Dir Wind Speed Gust Speed Precip Events Conditions
12:15 AM 51.8 °F - 44.6 °F 76% 29.98 in 10.0 mi NW 3.5 mph - N/A   Mostly Cloudy
12:35 AM 51.8 °F - 42.8 °F 71% 29.97 in 10.0 mi Calm Calm - N/A   Scattered Clouds
12:55 AM 50.0 °F - 42.8 °F 76% 29.97 in 10.0 mi Calm Calm - N/A   Clear
1:15 AM 50.0 °F - 44.6 °F 82% 29.98 in 10.0 mi Calm Calm - N/A   Clear
1:35 AM 50.0 °F - 44.6 °F 82% 29.98 in 10.0 mi Calm Calm - N/A   Clear
1:55 AM 50.0 °F - 44.6 °F 82% 29.98 in 10.0 mi Calm Calm - N/A   Clear
2:15 AM 50.0 °F - 44.6 °F 82% 29.98 in 10.0 mi Calm Calm - N/A   Clear
2:35 AM 50.0 °F - 42.8 °F 76% 29.97 in 10.0 mi NNW 5.8 mph - N/A   Clear
2:55 AM 48.2 °F - 42.8 °F 82% 29.96 in 10.0 mi North 6.9 mph - N/A   Clear
3:15 AM 48.2 °F - 42.8 °F 82% 29.97 in 10.0 mi North 5.8 mph - N/A   Clear
3:35 AM 48.2 °F - 42.8 °F 82% 29.96 in 10.0 mi Calm Calm - N/A   Clear
3:55 AM 46.4 °F 45.2 °F 41.0 °F 81% 29.97 in 10.0 mi North 3.5 mph - N/A   Clear
4:15 AM 46.4 °F 43.5 °F 41.0 °F 81% 29.97 in 10.0 mi North 5.8 mph - N/A   Clear
4:35 AM 46.4 °F 42.9 °F 41.0 °F 81% 29.97 in 10.0 mi North 6.9 mph - N/A   Clear
5:00 AM 46.4 °F 43.5 °F 39.2 °F 76% 29.99 in 10.0 mi North 5.8 mph - N/A   Clear
5:15 AM 44.6 °F 40.7 °F 41.0 °F 87% 29.99 in 10.0 mi North 6.9 mph - N/A   Clear
5:35 AM 44.6 °F 41.4 °F 41.0 °F 87% 30.00 in 10.0 mi North 5.8 mph - N/A   Clear
5:56 AM 44.6 °F 41.4 °F 39.2 °F 81% 30.01 in 10.0 mi North 5.8 mph - N/A   Partly Cloudy
6:52 AM 44.6 °F - 39.2 °F 81% 30.03 in 12.0 mi Calm Calm - N/A   Mostly Cloudy
8:52 AM 51.8 °F - 37.4 °F 58% 30.06 in 12.0 mi NNE 6.9 mph - N/A   Clear
9:52 AM 57.2 °F - 35.6 °F 44% 30.09 in 12.0 mi North 4.6 mph - N/A   Clear
10:50 AM 60.8 °F - 35.6 °F 39% 30.09 in 20.0 mi NNE 3.5 mph - N/A   Clear
11:50 AM 62.6 °F - 37.4 °F 39% 30.08 in 20.0 mi Variable 3.5 mph - N/A   Clear
12:56 PM 66.2 °F - 35.6 °F 32% 30.07 in 20.0 mi Variable 3.5 mph - N/A   Clear
1:50 PM 68.0 °F - 33.8 °F 28% 30.04 in 20.0 mi WNW 3.5 mph - N/A   Clear
2:50 PM 69.8 °F - 30.2 °F 23% 30.02 in 15.0 mi Calm Calm - N/A   Clear
3:50 PM 69.8 °F - 30.2 °F 23% 30.02 in 20.0 mi Calm Calm - N/A   Clear
4:50 PM 69.8 °F - 30.2 °F 23% 30.03 in 20.0 mi Calm Calm - N/A   Clear
5:50 PM 68.0 °F - 32.0 °F 26% 30.04 in 10.0 mi NW 4.6 mph - N/A   Clear
6:55 PM 62.6 °F - 35.6 °F 37% 30.05 in 10.0 mi NE 5.8 mph - N/A   Clear
7:50 PM 59.0 °F - 37.4 °F 45% 30.07 in 10.0 mi NNE 4.6 mph - N/A   Clear
8:50 PM 55.4 °F - 41.0 °F 58% 30.09 in 10.0 mi NNW 5.8 mph - N/A   Clear
9:45 PM 53.6 °F - 41.0 °F 62% 30.12 in 10.0 mi NNE 5.8 mph - N/A   Clear
9:55 PM 51.8 °F - 41.0 °F 67% 30.13 in 10.0 mi Calm Calm - N/A   Clear
10:15 PM 51.8 °F - 41.0 °F 67% 30.13 in 10.0 mi Calm Calm - N/A   Clear
10:35 PM 51.8 °F - 39.2 °F 62% 30.13 in 10.0 mi North 4.6 mph - N/A   Clear
10:55 PM 50.0 °F - 41.0 °F 71% 30.13 in 10.0 mi North 4.6 mph - N/A   Clear
11:15 PM 50.0 °F - 41.0 °F 71% 30.13 in 10.0 mi North 4.6 mph - N/A   Clear
11:40 PM 50.0 °F - 41.0 °F 71% 30.14 in 10.0 mi North 3.5 mph - N/A   Clear
11:55 PM 50.0 °F - 41.0 °F 71% 30.14 in 10.0 mi North 3.5 mph - N/A   Clear